Tracking 32579 objects as of 17-Dec-2025
HD Live streaming from Space Station
objects crossing your sky now

COSMOS 1275 DEB

Track COSMOS 1275 DEB now!
10-day predictions


NORAD ID: 12648
Int'l Code: 1981-053C
Perigee: 955.2 km
Apogee: 975.1 km
Inclination: 83.0 °
Period: 104.2 minutes
Semi major axis: 7336 km
RCS: 0.408 m2 (medium)
Launch date: June 4, 1981
Source: Commonwealth of Independent States (former USSR) (CIS)
Launch site: PLESETSK MISSILE AND SPACE COMPLEX (PKMTR)

Note: This is SATELLITE DEBRIS
Your satellite tracking list
Your tracking list is empty




NASA's NSSDC Master Catalog

Two Line Element Set (TLE):
1 12648U 81053C   25350.34956116  .00000327  00000-0  29158-3 0  9998
2 12648  82.9694 343.4924 0013576 334.3135  95.1106 13.81659003232425
Source of the keplerian elements: AFSPC